Morristown, NJ

10:47 AM EDT on April 26, 2017 (GMT -0400)
Morristown Municipal

Weather History for KMMU - June, 2013

Change the Weather History Date:

Sunday, June 9, 2013

  Actual Average Record
Temperature  
Mean Temperature 70 °F -  
Max Temperature 80 °F 80 °F 97 °F (1933)
Min Temperature 59 °F 56 °F 37 °F (1949)
Cooling Degree Days 4    
Growing Degree Days 20 (Base 50)    
Moisture  
Dew Point 59 °F    
Average Humidity 78    
Maximum Humidity 100    
Minimum Humidity 45    
Precipitation  
Precipitation 0.13 in - - ()
Sea Level Pressure  
Sea Level Pressure 30.13 in    
Wind  
Wind Speed 1 mph (West)    
Max Wind Speed 12 mph    
Max Gust Speed 17 mph    
Visibility 9 miles    
Events      
Averages and records for this station are not official NWS values.
T = Trace of Precipitation, MM = Missing Value Source: NWS Daily Summary

Daily Weather History Graph

Daily Weather History Graph

Search for Another Location

Airport or City:

Trip Planner

Search our weather history database for the weather conditions in past years. The results will help you decide how hot, cold, wet, or windy it might be!

Date:

Astronomy

Jun. 09, 2013 Rise Set
Actual Time 5:25 AM EDT 8:28 PM EDT
Civil Twilight 4:52 AM EDT 9:01 PM EDT
Nautical Twilight 4:10 AM EDT 9:43 PM EDT
Astronomical Twilight 3:20 AM EDT 10:33 PM EDT
Moon 6:20 AM EDT (6/9) 9:12 PM EDT (6/9)
Length of Visible Light 16h 08m
Length of Day
15h 02m
New Moon, 1% of the Moon is Illuminated
Jun 9
New Moon
Jun 16
First Quarter
Jun 23
Full
Jun 30
Last Quarter
Jul 8
New

Hourly Weather History & Observations

Time (EDT) Temp. Heat Index Dew Point Humidity Pressure Visibility Wind Dir Wind Speed Gust Speed Precip Events Conditions
12:15 AM 64.4 °F - 60.8 °F 88% 30.07 in 10.0 mi Calm Calm - 0.01 in   Clear
12:35 AM 64.4 °F - 60.8 °F 88% 30.07 in 10.0 mi Calm Calm - 0.02 in   Clear
12:55 AM 64.4 °F - 60.8 °F 88% 30.08 in 10.0 mi Calm Calm - N/A   Clear
1:15 AM 64.4 °F - 60.8 °F 88% 30.08 in 3.0 mi Calm Calm - 0.01 in   Clear
1:35 AM 62.6 °F - 60.8 °F 94% 30.08 in 5.0 mi Calm Calm - 0.02 in   Clear
1:55 AM 62.6 °F - 59.0 °F 88% 30.08 in 5.0 mi Calm Calm - 0.01 in   Clear
2:15 AM 62.6 °F - 59.0 °F 88% 30.08 in 7.0 mi Calm Calm - 0.02 in   Clear
2:35 AM 62.6 °F - 60.8 °F 94% 30.08 in 4.0 mi Calm Calm - 0.02 in   Clear
2:55 AM 62.6 °F - 59.0 °F 88% 30.08 in 7.0 mi Calm Calm - N/A   Clear
3:15 AM 60.8 °F - 57.2 °F 88% 30.09 in 10.0 mi Calm Calm - 0.01 in   Clear
3:35 AM 60.8 °F - 59.0 °F 94% 30.09 in 5.0 mi Calm Calm - 0.02 in   Clear
3:55 AM 60.8 °F - 59.0 °F 94% 30.09 in 10.0 mi Calm Calm - 0.01 in   Clear
4:15 AM 59.0 °F - 57.2 °F 94% 30.10 in 10.0 mi Calm Calm - 0.01 in   Clear
4:35 AM 60.8 °F - 57.2 °F 88% 30.11 in 7.0 mi Calm Calm - 0.02 in   Clear
4:55 AM 60.8 °F - 57.2 °F 88% 30.12 in 7.0 mi Calm Calm - N/A   Clear
5:15 AM 59.0 °F - 55.4 °F 88% 30.13 in 10.0 mi Calm Calm - N/A   Clear
5:35 AM 59.0 °F - 57.2 °F 94% 30.14 in 10.0 mi Calm Calm - 0.01 in   Clear
5:55 AM 60.8 °F - 57.2 °F 88% 30.15 in 7.0 mi Calm Calm - 0.01 in   Clear
6:15 AM 60.8 °F - 59.0 °F 94% 30.15 in 7.0 mi Calm Calm - 0.01 in   Clear
6:35 AM 62.6 °F - 59.0 °F 88% 30.15 in 10.0 mi Calm Calm - 0.02 in   Clear
6:45 AM 59.0 °F - 59.0 °F 100% 30.16 in 10.0 mi Calm Calm - N/A   Clear
7:45 AM 64.4 °F - 59.0 °F 83% 30.17 in 10.0 mi Calm Calm - N/A   Clear
8:45 AM 69.8 °F - 59.0 °F 68% 30.18 in 10.0 mi Calm Calm - N/A   Clear
9:45 AM 71.6 °F - 59.0 °F 64% 30.18 in 10.0 mi Calm Calm - N/A   Clear
10:45 AM 73.4 °F - 55.4 °F 53% 30.18 in 10.0 mi WNW 5.8 mph - N/A   Clear
11:45 AM 75.2 °F - 55.4 °F 50% 30.17 in 10.0 mi West 9.2 mph - N/A   Partly Cloudy
12:45 PM 77.0 °F - 57.2 °F 50% 30.16 in 10.0 mi Calm Calm - N/A   Scattered Clouds
1:45 PM 78.8 °F - 57.2 °F 47% 30.15 in 10.0 mi WSW 5.8 mph - N/A   Scattered Clouds
2:45 PM 80.6 °F 81.1 °F 59.0 °F 48% 30.14 in 10.0 mi SSW 9.2 mph - N/A   Mostly Cloudy
3:45 PM 80.6 °F 80.8 °F 57.2 °F 45% 30.13 in 10.0 mi West 11.5 mph 17.3 mph N/A   Scattered Clouds
4:45 PM 80.6 °F 80.8 °F 57.2 °F 45% 30.12 in 10.0 mi NW 8.1 mph 13.8 mph N/A   Scattered Clouds
5:45 PM 80.6 °F 80.8 °F 57.2 °F 45% 30.12 in 10.0 mi WNW 8.1 mph - N/A   Scattered Clouds
6:45 PM 78.8 °F - 57.2 °F 47% 30.13 in 10.0 mi Calm Calm - N/A   Scattered Clouds
7:45 PM 73.4 °F - 62.6 °F 69% 30.14 in 10.0 mi Calm Calm - N/A   Clear
8:45 PM 66.2 °F - 60.8 °F 83% 30.15 in 10.0 mi Calm Calm - N/A   Clear
9:45 PM 66.2 °F - 60.8 °F 83% 30.16 in 10.0 mi Calm Calm - N/A   Clear
10:55 PM 66.2 °F - 62.6 °F 88% 30.16 in 10.0 mi Calm Calm - 0.01 in   Scattered Clouds
11:15 PM 66.2 °F - 62.6 °F 88% 30.16 in 7.0 mi Calm Calm - 0.01 in   Clear
11:35 PM 66.2 °F - 62.6 °F 88% 30.16 in 7.0 mi Calm Calm - 0.01 in   Scattered Clouds
11:55 PM 66.2 °F - 62.6 °F 88% 30.16 in 10.0 mi Calm Calm - N/A   Mostly Cloudy